Weather History for MMCZ - April, 2013

Change the Weather History Date:

Thursday, April 18, 2013

  Actual Average Record
Temperature  
Mean Temperature 78 °F -  
Max Temperature 84 °F 85 °F 89 °F (1998)
Min Temperature 71 °F 72 °F 64 °F (2007)
Cooling Degree Days 12    
Growing Degree Days 28 (Base 50)    
Moisture  
Dew Point 71 °F    
Average Humidity 81    
Maximum Humidity 100    
Minimum Humidity 62    
Precipitation  
Precipitation 0.00 in - - ()
Sea Level Pressure  
Sea Level Pressure 29.88 in    
Wind  
Wind Speed 9 mph ()    
Max Wind Speed 23 mph    
Max Gust Speed 24 mph    
Visibility 7.5 miles    
Events      
Averages and records for this station are not official NWS values.
T = Trace of Precipitation, MM = Missing Value Source: Averaged Metar Reports

Daily Weather History Graph

Daily Weather History Graph

Search for Another Location

Airport or City:

Trip Planner

Search our weather history database for the weather conditions in past years. The results will help you decide how hot, cold, wet, or windy it might be!

Date:

Astronomy

Apr. 18, 2013 Rise Set
Actual Time 6:26 AM CDT 7:07 PM CDT
Civil Twilight 6:04 AM CDT 7:30 PM CDT
Nautical Twilight 5:37 AM CDT 7:56 PM CDT
Astronomical Twilight 5:10 AM CDT 8:23 PM CDT
Moon 12:46 PM CDT (4/18) 1:11 AM CDT (4/18)
Length of Visible Light 13h 26m
Length of Day
12h 40m
First Quarter, 52% of the Moon is Illuminated
Apr 18
First Quarter
Apr 25
Full
May 2
Last Quarter
May 9
New
May 17
First Quarter

Hourly Weather History & Observations

Time (CDT) Temp. Heat Index Dew Point Humidity Pressure Visibility Wind Dir Wind Speed Gust Speed Precip Events Conditions
12:46 AM 73.4 °F - 71.6 °F 94% 29.89 in 7.0 mi SE 8.1 mph - N/A   Partly Cloudy
1:41 AM 71.6 °F - 71.6 °F 100% 29.90 in 7.0 mi ESE 4.6 mph - N/A   Partly Cloudy
3:05 AM 71.6 °F - 71.6 °F 100% 29.88 in 7.0 mi SE 4.6 mph - N/A   Partly Cloudy
3:45 AM 73.4 °F - 71.6 °F 94% 29.90 in 7.0 mi ESE 6.9 mph - N/A   Partly Cloudy
4:42 AM 73.4 °F - 71.6 °F 94% 29.86 in 7.0 mi ESE 8.1 mph - N/A   Partly Cloudy
5:46 AM 73.4 °F - 71.6 °F 94% 29.86 in 7.0 mi ESE 4.6 mph - N/A   Partly Cloudy
6:47 AM 73.4 °F - 71.6 °F 94% 29.84 in 8.0 mi ESE 4.6 mph - N/A   Scattered Clouds
7:46 AM 75.2 °F - 73.4 °F 94% 29.89 in 8.0 mi ESE 11.5 mph - N/A   Scattered Clouds
8:42 AM 78.8 °F - 71.6 °F 78% 29.90 in 8.0 mi ESE 18.4 mph - N/A   Scattered Clouds
9:45 AM 80.6 °F 84.6 °F 71.6 °F 74% 29.93 in 8.0 mi SE 19.6 mph - N/A   Scattered Clouds
10:47 AM 82.4 °F 87.2 °F 71.6 °F 70% 29.91 in 8.0 mi SSE 18.4 mph - N/A   Scattered Clouds
11:41 AM 82.4 °F 86.3 °F 69.8 °F 66% 29.89 in 8.0 mi ESE 23.0 mph - N/A   Scattered Clouds
12:45 PM 84.2 °F 88.4 °F 69.8 °F 62% 29.86 in 8.0 mi SE 12.7 mph 24.2 mph N/A   Scattered Clouds
1:41 PM 84.2 °F 88.4 °F 69.8 °F 62% 29.87 in 8.0 mi SE 21.9 mph - N/A   Scattered Clouds
2:43 PM 84.2 °F 88.4 °F 69.8 °F 62% 29.86 in 8.0 mi SE 18.4 mph - N/A   Scattered Clouds
3:40 PM 84.2 °F 89.6 °F 71.6 °F 66% 29.88 in 8.0 mi SE 11.5 mph 23.0 mph N/A   Scattered Clouds
4:43 PM 80.6 °F 84.6 °F 71.6 °F 74% 29.84 in 8.0 mi SE 13.8 mph - N/A   Scattered Clouds
5:40 PM 78.8 °F - 71.6 °F 78% 29.85 in 8.0 mi SSE 13.8 mph - N/A   Scattered Clouds
6:40 PM 78.8 °F - 71.6 °F 78% 29.83 in 8.0 mi SE 11.5 mph - N/A   Scattered Clouds
7:44 PM 77.0 °F - 71.6 °F 83% 29.88 in 7.0 mi SE 9.2 mph - N/A   Scattered Clouds
8:40 PM 77.0 °F - 71.6 °F 83% 29.89 in 7.0 mi SE 11.5 mph - N/A   Scattered Clouds
9:40 PM 77.0 °F - 71.6 °F 83% 29.92 in 7.0 mi SE 15.0 mph - N/A   Partly Cloudy
10:45 PM 77.0 °F - 71.6 °F 83% 29.91 in 7.0 mi SE 8.1 mph - N/A   Scattered Clouds
11:43 PM 75.2 °F - 71.6 °F 89% 29.90 in 7.0 mi SE 10.4 mph - N/A   Scattered Clouds